Weather History for Meridian, MS

Change the Weather History Date:

Thursday, September 27, 2012

  Actual Average Record
Temperature  
Mean Temperature 75 °F 71 °F  
Max Temperature 87 °F 84 °F 97 °F (1954)
Min Temperature 62 °F 59 °F 39 °F (1899)
Degree Days  
Heating Degree Days 0 1  
Month to date heating degree days 1 3  
Since 1 July heating degree days 1 3  
Cooling Degree Days 10 7  
Month to date cooling degree days 247 286  
Year to date cooling degree days 2105 1906  
Growing Degree Days 24 (Base 50)    
Moisture  
Dew Point 65 °F    
Average Humidity 75    
Maximum Humidity 100    
Minimum Humidity 50    
Precipitation  
Precipitation 0.00 in 0.12 in 5.51 in (1906)
Month to date precipitation 2.25 3.07  
Year to date precipitation 47.97 42.03  
Sea Level Pressure  
Sea Level Pressure 30.13 in    
Wind  
Wind Speed 1 mph (SSE)    
Max Wind Speed 9 mph    
Max Gust Speed 12 mph    
Visibility 5 miles    
Events Fog    
T = Trace of Precipitation, MM = Missing Value Source: NWS Daily Summary

Daily Weather History Graph

Daily Weather History Graph

Search for Another Location

Airport:

Trip Planner

Search our weather history database for the weather conditions in past years. The results will help you decide how hot, cold, wet, or windy it might be!

Date:

Astronomy

Sep. 27, 2012 Rise Set
Actual Time 6:46 AM CDT 6:44 PM CDT
Civil Twilight 6:22 AM CDT 7:08 PM CDT
Nautical Twilight 5:53 AM CDT 7:37 PM CDT
Astronomical Twilight 5:25 AM CDT 8:05 PM CDT
Moon 5:11 PM CDT (9/27) 4:22 AM CDT (9/27)
Length of Visible Light 12h 46m
Length of Day
11h 57m
Waxing Gibbous, 94% of the Moon is Illuminated
Sep 27
Waxing Gibbous
Sep 29
Full
Oct 8
Last Quarter
Oct 15
New
Oct 21
First Quarter

Hourly Weather History & Observations

Time (CDT) Temp. Heat Index Dew Point Humidity Pressure Visibility Wind Dir Wind Speed Gust Speed Precip Events Conditions
12:58 AM 66.0 °F - 64.0 °F 93% 30.11 in 9.0 mi Calm Calm - N/A   Clear
1:58 AM 64.0 °F - 63.0 °F 96% 30.11 in 9.0 mi Calm Calm - N/A   Clear
2:58 AM 63.0 °F - 62.1 °F 97% 30.10 in 8.0 mi Calm Calm - 0.02 in   Clear
3:58 AM 64.0 °F - 62.1 °F 93% 30.11 in 9.0 mi Calm Calm - 0.01 in   Clear
4:41 AM 62.6 °F - 62.6 °F 100% 30.14 in 1.8 mi Calm Calm - N/A   Partly Cloudy
4:44 AM 62.6 °F - 62.6 °F 100% 30.14 in 0.8 mi Calm Calm - N/A   Mist
4:58 AM 63.0 °F - 63.0 °F 100% 30.14 in 0.5 mi Calm Calm - N/A Fog Fog
5:06 AM 62.6 °F - 62.6 °F 100% 30.15 in 0.2 mi Calm Calm - N/A Fog Fog
5:19 AM 62.6 °F - 62.6 °F 100% 30.15 in 0.2 mi Calm Calm - N/A Fog Fog
5:39 AM 62.6 °F - 62.6 °F 100% 30.15 in 0.5 mi Calm Calm - N/A Fog Fog
5:44 AM 62.6 °F - 62.6 °F 100% 30.15 in 0.2 mi Calm Calm - N/A Fog Fog
5:58 AM 63.0 °F - 63.0 °F 100% 30.14 in 0.2 mi Calm Calm - N/A Fog Fog
6:05 AM 62.6 °F - 62.6 °F 100% 30.15 in 1.0 mi Calm Calm - N/A   Overcast
6:09 AM 62.6 °F - 62.6 °F 100% 30.15 in 3.0 mi Calm Calm - N/A   Overcast
6:18 AM 62.6 °F - 62.6 °F 100% 30.15 in 0.8 mi Calm Calm - N/A   Overcast
6:20 AM 62.6 °F - 62.6 °F 100% 30.15 in 0.5 mi Calm Calm - N/A Fog Fog
6:58 AM 63.0 °F - 63.0 °F 100% 30.16 in 0.2 mi Calm Calm - N/A Fog Fog
7:16 AM 62.6 °F - 62.6 °F 100% 30.16 in 0.2 mi Calm Calm - N/A Fog Fog
7:32 AM 62.6 °F - 62.6 °F 100% 30.17 in 0.2 mi Calm Calm - N/A Fog Fog
7:53 AM 64.4 °F - 64.4 °F 100% 30.17 in 0.2 mi Calm Calm - N/A Fog Fog
7:54 AM 64.0 °F - 64.0 °F 100% 30.17 in 0.2 mi Calm Calm - N/A Fog Fog
8:01 AM 64.4 °F - 64.4 °F 100% 30.17 in 0.5 mi Calm Calm - N/A Fog Fog
8:09 AM 64.4 °F - 64.4 °F 100% 30.17 in 2.0 mi Calm Calm - N/A   Mostly Cloudy
8:15 AM 66.2 °F - 66.2 °F 100% 30.17 in 4.0 mi Calm Calm - N/A   Scattered Clouds
8:58 AM 72.0 °F - 68.0 °F 87% 30.18 in 8.0 mi Calm Calm - N/A   Clear
9:58 AM 79.0 °F - 70.0 °F 74% 30.17 in 10.0 mi Calm Calm - N/A   Clear
10:58 AM 82.0 °F 84.1 °F 66.0 °F 58% 30.17 in 10.0 mi Calm Calm - N/A   Clear
11:58 AM 84.0 °F 86.3 °F 66.0 °F 55% 30.15 in 10.0 mi South 4.6 mph - N/A   Clear
12:58 PM 82.9 °F 85.0 °F 66.0 °F 56% 30.13 in 10.0 mi Calm Calm - N/A   Scattered Clouds
1:58 PM 84.9 °F 87.1 °F 66.0 °F 53% 30.10 in 10.0 mi Variable 3.5 mph - N/A   Clear
2:58 PM 87.1 °F 89.2 °F 66.0 °F 49% 30.08 in 10.0 mi ESE 4.6 mph - N/A   Partly Cloudy
3:58 PM 84.0 °F 86.5 °F 66.9 °F 56% 30.07 in 10.0 mi ESE 4.6 mph - N/A   Clear
4:58 PM 84.9 °F 87.6 °F 66.9 °F 55% 30.06 in 10.0 mi South 8.1 mph - N/A   Clear
5:58 PM 82.9 °F 85.8 °F 68.0 °F 60% 30.05 in 10.0 mi SSE 5.8 mph - N/A   Clear
6:58 PM 75.0 °F - 71.1 °F 87% 30.06 in 10.0 mi Calm Calm - N/A   Clear
7:58 PM 72.0 °F - 70.0 °F 93% 30.08 in 10.0 mi Calm Calm - N/A   Clear
8:58 PM 70.0 °F - 68.0 °F 93% 30.10 in 10.0 mi Calm Calm - N/A   Clear
9:58 PM 69.1 °F - 66.9 °F 93% 30.10 in 9.0 mi Calm Calm - N/A   Clear
10:58 PM 66.9 °F - 66.0 °F 97% 30.10 in 9.0 mi Calm Calm - N/A   Clear
11:58 PM 66.2 °F - 64.4 °F 94% 30.11 in 10.0 mi Calm Calm - N/A   Clear